sat.trackr.live / text

‹ back to catalog

STARLINK-4600

NORAD 53628 · 2022-104AS

PAYLOAD ACTIVE UNKNOWN

§ Identity

Operator
Country
US
Launch date
2022-08-28
Launch site
AFETR
Launch vehicle
Mass (kg)
RCS (m²)

Purposes: comms

External: N2YO · Heavens-Above · Gunter

§ Orbital elements

Epoch: 2026-05-25T00:20:48.963840Z

Period
95.44 min
Inclination
53.2162°
Eccentricity
0.0001138
Mean motion
15.08838080 rev/d
Perigee alt
539.0 km
Apogee alt
540.5 km
Semi-major
6,917.9 km
B*
2.1399e-5
RAAN
251.0464°
Arg perigee
87.1609°
Mean anomaly
272.9514°
Rev number
20,728

§ Raw data

STARLINK-46001 53628U 22104AS  26145.01445560  .00000053  00000+0  21399-4 0  99912 53628  53.2162 251.0464 0001138  87.1609 272.9514 15.08838080207281

JSON: /api/v1/satellites/53628 · /tle

For live sub-satellite position, see the globe view (requires WebGL).

§ Visibility from observer

Set your observer location to see the next 7 days of passes ≥ 10°. The values pass through the URL so the page stays shareable.

No JS? Fill the form by hand. The geolocation button needs JavaScript.